Flag for Chile Weather past 2 weeks in Easter Island, Chile

Now
72 °F

Scattered clouds.


Feels Like: 75 °F
Forecast: 63 / 69 °F
Wind: 13 mph from Northwest

Location: Isla De Pascua

Current Time: Sep 17, 2014 at 3:38:34 PM

Latest Report: Sep 17, 2014 at 3:00 PM


Visibility: N/A

Pressure: 30.27 "Hg

Humidity: 65%

Dew point: 59 °F

Location of Easter IslandLocation

Historic Weather in Easter Island — Graph

°F

Easter Island temperature yesterday

Maximum temperature yesterday: 72 °F (at 1:00 PM)
Minimum temperature yesterday: 57 °F (at 6:00 AM)
Average temperature yesterday: 65 °F

Past Weeks' High & Low Weather Summary

 TemperatureHumidityPressure
High72 °F (Sep 4, 1:00 PM)88% (Sep 6, 3:00 AM)30.54 "Hg (Sep 6, 3:00 AM)
Low54 °F (Sep 3, 7:00 AM)46% (Sep 7, 11:00 AM)30.04 "Hg (Sep 7, 8:00 AM)
Average64 °F68%30.33 "Hg
* Reported Sep 2 1:00 PM — Sep 17 2:00 PM, Easter Island, Weather by CustomWeather, © 2014

Note: Actual official high and low records may vary slightly from our data, if they occured in-between our weather recording intervals... More about our weather records

Advertising

Easter Island weather history for previous 24 hours

 ConditionsComfort  
Time TempWeatherWind HumidityBarometerVisibility
2:00 PM
Sep 17
70 °FBroken clouds.13 mph64%30.12 "HgN/A
1:00 PM70 °FPartly sunny.8 mph57%30.30 "HgN/A
12:00 PM70 °FBroken clouds.7 mph60%30.33 "HgN/A
11:00 AM68 °FBroken clouds.7 mph69%30.30 "HgN/A
10:00 AM66 °FPartly cloudy.6 mph73%30.30 "HgN/A
9:00 AM64 °FPartly cloudy.2 mph78%30.27 "HgN/A
8:00 AM63 °FPartly cloudy.3 mph83%30.27 "HgN/A
7:00 AM63 °FPassing clouds.5 mph88%30.27 "HgN/A
6:00 AM63 °FPassing clouds.2 mph83%30.24 "HgN/A
5:00 AM63 °FPassing clouds.5 mph83%30.27 "HgN/A
4:00 AM63 °FPartly cloudy.2 mph83%30.30 "HgN/A
3:00 AM63 °FPartly cloudy.2 mph88%30.30 "HgN/A
2:00 AM63 °FPassing clouds.2 mph88%30.33 "HgN/A
1:00 AM63 °FPartly cloudy.3 mph83%30.33 "HgN/A
12:00 AM64 °FPartly cloudy.6 mph83%30.36 "HgN/A
11:00 PM
Sep 16
64 °FPartly cloudy.3 mph83%30.33 "HgN/A
10:00 PM64 °FPartly sunny.6 mph83%30.33 "HgN/A
9:00 PM66 °FPartly sunny.3 mph73%30.33 "HgN/A
8:00 PM66 °FBroken clouds.9 mph73%30.30 "HgN/A
7:00 PM68 °FBroken clouds.9 mph69%30.30 "HgN/A
6:00 PM70 °FPartly sunny.7 mph69%30.30 "HgN/A
5:00 PM70 °FPartly sunny.7 mph64%30.30 "HgN/A
4:00 PM70 °FPartly sunny.8 mph60%30.30 "HgN/A
3:00 PM70 °FBroken clouds.9 mph60%30.33 "HgN/A
Weather by CustomWeather, © 2014

See weather overviewHow to use our weather pages